This is the latest recevied weather packets stored in our database for station/object KO6MEX-13. If no packets are shown the sender has not sent any weather packets the latest 10 day(s).
| Time | Temp. | Humidity | Pressure | Rain* | Wind** | Luminosity | Snow |
|---|---|---|---|---|---|---|---|
| 1777990683 | 11.11° C | 91% | 1018.6 hPa | 0 mm | - | 38 W/m² | - |
| 1777990380 | 11.11° C | 92% | 1018.5 hPa | 0 mm | - | 38 W/m² | - |
| 1777990076 | 10.56° C | 92% | 1018.4 hPa | 0 mm | - | 31 W/m² | - |
| 1777989773 | 10.56° C | 92% | 1018.5 hPa | 0 mm | - | 26 W/m² | - |
| 1777989469 | 10.56° C | 93% | 1018.5 hPa | 0 mm | - | 22 W/m² | - |
| 1777989166 | 10.56° C | 92% | 1018.5 hPa | 0 mm | - | 19 W/m² | - |
| 1777988862 | 10.56° C | 92% | 1018.6 hPa | 0 mm | - | 16 W/m² | - |
| 1777988560 | 10.56° C | 92% | 1018.6 hPa | 0 mm | - | 14 W/m² | - |
| 1777988256 | 10.56° C | 92% | 1018.5 hPa | 0 mm | - | 12 W/m² | - |
| 1777987953 | 10.56° C | 92% | 1018.6 hPa | 0 mm | - | 10 W/m² | - |
| 1777987648 | 10.56° C | 92% | 1018.5 hPa | 0 mm | - | 8 W/m² | - |
| 1777987346 | 10.56° C | 92% | 1018.5 hPa | 0 mm | - | 6 W/m² | - |
| 1777987043 | 10.56° C | 91% | 1018.2 hPa | 0 mm | - | 4 W/m² | - |
| 1777986740 | 10.56° C | 91% | 1018.3 hPa | 0 mm | - | 2 W/m² | - |
| 1777986438 | 10.56° C | 91% | 1018.3 hPa | 0 mm | - | 0 W/m² | - |
| 1777986137 | 10.56° C | 91% | 1018.2 hPa | 0 mm | - | 0 W/m² | - |
| 1777985833 | 10.56° C | 91% | 1018.2 hPa | 0 mm | - | 0 W/m² | - |
| 1777985530 | 11.11° C | 91% | 1018.2 hPa | 0 mm | - | 0 W/m² | - |
| 1777985226 | 11.11° C | 90% | 1018.4 hPa | 0 mm | - | 0 W/m² | - |
| 1777984923 | 11.11° C | 91% | 1018.1 hPa | 0 mm | - | 0 W/m² | - |
| 1777984619 | 10.56° C | 91% | 1018.4 hPa | 0 mm | - | 0 W/m² | - |
| 1777984316 | 10.56° C | 91% | 1018.4 hPa | 0 mm | - | 0 W/m² | - |
| 1777984013 | 10.56° C | 90% | 1018.4 hPa | 0 mm | - | 0 W/m² | - |
| 1777983710 | 10.56° C | 90% | 1018.3 hPa | 0 mm | - | 0 W/m² | - |
| 1777983407 | 10.56° C | 91% | 1018.4 hPa | 0 mm | - | 0 W/m² | - |
* Rain latest hour (hover to see other rain measurements)
** Current wind speed in m/s (hover to see current wind gust speed)